KE8KMM Weather Reports


Display with metric or nautical units.
time (UTC)temp
F
wind
direction
speed
MPH
gust
MPH
rain 1hr
in
rain 24hr
in
rain mn
in
humidity
%
barometer
mb
20260506211112 59 89 0.0 6.0 0.00 0.55 0.55 59 1010.2
20260506210609 59 199 2.0 6.0 0.00 0.55 0.55 59 1010.0
20260506210105 59 11 3.0 3.0 0.00 0.55 0.55 57 1010.1
20260506205602 60 119 3.0 6.0 0.00 0.55 0.55 55 1010.1
20260506205057 60 122 1.0 2.0 0.00 0.55 0.55 57 1010.0
20260506204555 60 187 1.0 3.0 0.00 0.55 0.55 55 1009.7
20260506204051 60 127 0.0 2.0 0.00 0.55 0.55 57 1009.7
20260506203550 60 124 0.0 3.0 0.00 0.55 0.55 58 1009.9
20260506203046 60 75 1.0 6.0 0.00 0.55 0.55 59 1009.9
20260506202544 61 124 1.0 3.0 0.00 0.55 0.55 59 1009.8
20260506202040 61 130 0.0 1.0 0.00 0.55 0.55 61 1010.0
20260506201538 60 164 1.0 3.0 0.00 0.55 0.55 60 1010.1
20260506201034 60 224 3.0 6.0 0.00 0.55 0.55 56 1009.9
20260506200530 60 126 1.0 2.0 0.00 0.55 0.55 57 1009.9
20260506200027 60 113 1.0 2.0 0.00 0.55 0.55 56 1009.7
20260506195524 60 266 3.0 7.0 0.00 0.55 0.55 56 1009.6
20260506195020 60 243 1.0 2.0 0.00 0.55 0.55 56 1009.8
20260506194518 60 245 2.0 3.0 0.00 0.55 0.55 53 1009.7
20260506194014 60 187 3.0 5.0 0.00 0.55 0.55 58 1009.9
20260506193512 60 227 3.0 8.0 0.00 0.55 0.55 60 1009.9
20260506193009 60 231 1.0 5.0 0.00 0.55 0.55 61 1009.9
20260506192505 61 98 1.0 3.0 0.00 0.55 0.55 58 1009.7
20260506192001 60 132 0.0 2.0 0.00 0.55 0.55 60 1009.9
20260506191458 61 219 1.0 2.0 0.00 0.55 0.55 60 1010.1
20260506190955 60 239 1.0 5.0 0.00 0.55 0.55 59 1010.0
20260506190452 60 225 1.0 5.0 0.00 0.55 0.55 60 1010.1
20260506185948 60 58 3.0 6.0 0.00 0.55 0.55 57 1010.3
20260506185446 60 100 0.0 1.0 0.00 0.55 0.55 58 1010.1
20260506184943 59 204 4.0 5.0 0.00 0.55 0.55 57 1010.4
20260506184439 59 202 2.0 3.0 0.00 0.55 0.55 59 1010.3
20260506183937 59 183 3.0 5.0 0.00 0.55 0.55 63 1010.1
20260506183432 59 122 0.0 2.0 0.00 0.55 0.55 61 1010.1
20260506182929 59 87 0.0 1.0 0.00 0.55 0.55 65 1010.2
20260506182427 59 290 4.0 7.0 0.00 0.55 0.55 64 1010.1
20260506181924 58 198 1.0 2.0 0.00 0.55 0.55 65 1010.4
20260506181422 58 116 1.0 2.0 0.00 0.55 0.55 66 1010.2
20260506180918 58 246 1.0 6.0 0.00 0.55 0.55 64 1010.1
20260506180414 58 218 3.0 6.0 0.00 0.55 0.55 65 1010.0
20260506175912 59 90 1.0 9.0 0.00 0.55 0.55 66 1010.1
20260506175408 59 229 3.0 5.0 0.00 0.55 0.55 66 1010.4
20260506174905 59 345 1.0 3.0 0.00 0.55 0.55 69 1010.1
20260506174403 59 116 1.0 3.0 0.00 0.55 0.55 66 1010.1
20260506173900 60 146 1.0 3.0 0.00 0.55 0.55 67 1010.4
20260506173356 59 236 3.0 6.0 0.00 0.55 0.55 68 1010.2
20260506172854 59 1 1.0 6.0 0.00 0.55 0.55 68 1010.2
20260506172350 59 226 2.0 7.0 0.00 0.55 0.55 69 1010.2
20260506171848 58 224 4.0 6.0 0.00 0.55 0.55 71 1010.3
20260506171344 58 105 1.0 7.0 0.00 0.55 0.55 67 1010.7
20260506170842 57 50 5.0 8.0 0.00 0.55 0.55 68 1010.5
20260506170338 58 182 2.0 7.0 0.00 0.55 0.55 70 1010.4
20260506165832 58 108 1.0 8.0 0.00 0.55 0.55 71 1010.6
20260506165329 57 93 0.0 3.0 0.00 0.55 0.55 74 1010.2
20260506164825 57 120 0.0 1.0 0.00 0.55 0.55 74 1010.1
20260506164322 56 230 6.0 7.0 0.00 0.55 0.55 77 1009.8
20260506163819 57 210 5.0 6.0 0.00 0.55 0.55 75 1010.3
20260506163314 56 225 7.0 9.0 0.00 0.55 0.55 77 1010.5
20260506162810 56 78 1.0 2.0 0.00 0.55 0.55 74 1010.6
20260506162308 57 245 2.0 5.0 0.00 0.55 0.55 76 1010.3
20260506161805 56 174 1.0 1.0 0.00 0.55 0.55 77 1010.4
20260506161302 55 117 0.0 5.0 0.00 0.55 0.55 80 1010.5
20260506160800 54 186 2.0 3.0 0.00 0.55 0.55 80 1010.3
20260506160256 53 260 3.0 6.0 0.00 0.55 0.55 83 1010.3
20260506155755 53 267 2.0 7.0 0.00 0.55 0.55 78 1010.3
20260506155251 53 181 5.0 8.0 0.00 0.55 0.55 81 1010.4
20260506153404 52 269 4.0 6.0 0.00 0.55 0.55 84 1010.0
20260506152901 51 25 2.0 3.0 0.00 0.55 0.55 85 1010.3
20260506152358 51 259 3.0 3.0 0.00 0.55 0.55 85 1010.1
20260506151857 51 269 3.0 5.0 0.00 0.55 0.55 85 1009.9
20260506151353 51 255 3.0 8.0 0.00 0.55 0.55 85 1009.7
20260506150851 52 158 2.0 5.0 0.00 0.55 0.55 86 1009.8
20260506150347 52 188 3.0 5.0 0.00 0.55 0.55 86 1009.6
20260506145844 51 130 0.0 2.0 0.00 0.55 0.55 85 1009.5
20260506145340 51 355 6.0 8.0 0.00 0.55 0.55 86 1009.4
20260506144838 51 60 2.0 6.0 0.00 0.55 0.55 86 1009.6
20260506144334 51 280 5.0 7.0 0.00 0.55 0.55 88 1009.6
20260506143833 51 355 2.0 5.0 0.00 0.55 0.55 88 1009.6
20260506143329 51 259 2.0 2.0 0.00 0.55 0.55 88 1009.3
20260506142828 50 209 1.0 3.0 0.00 0.55 0.55 88 1009.3
20260506142325 50 166 1.0 3.0 0.00 0.55 0.55 89 1009.4
20260506141823 50 259 1.0 5.0 0.00 0.55 0.55 89 1009.1
20260506141321 50 126 1.0 3.0 0.00 0.55 0.55 89 1009.0
20260506140819 50 236 2.0 5.0 0.00 0.55 0.55 89 1009.0
20260506140315 50 271 0.0 6.0 0.00 0.55 0.55 88 1009.0
20260506135813 51 203 1.0 2.0 0.00 0.55 0.55 90 1008.8
20260506135309 50 110 0.0 1.0 0.00 0.55 0.55 89 1008.7
20260506134806 50 186 0.0 3.0 0.00 0.55 0.55 90 1008.8
20260506134302 50 182 1.0 2.0 0.00 0.55 0.55 91 1008.7
20260506133759 50 225 1.0 2.0 0.00 0.55 0.55 91 1008.4
20260506133256 50 150 0.0 1.0 0.00 0.55 0.55 94 1008.5
20260506132753 49 205 2.0 3.0 0.00 0.55 0.55 93 1008.7
20260506132250 48 195 1.0 2.0 0.00 0.55 0.55 94 1008.4
20260506131748 49 214 1.0 1.0 0.00 0.55 0.55 95 1008.5
20260506131243 48 103 1.0 3.0 0.00 0.55 0.55 95 1008.3
20260506130740 48 236 0.0 1.0 0.00 0.55 0.55 96 1008.4
20260506130237 48 172 0.0 1.0 0.00 0.55 0.55 96 1008.5
20260506125736 47 212 2.0 2.0 0.00 0.55 0.55 96 1008.5
20260506125233 47 47 1.0 5.0 0.00 0.55 0.55 96 1008.4
20260506124731 48 82 1.0 1.0 0.00 0.55 0.55 96 1008.3
20260506124229 47 179 1.0 2.0 0.00 0.55 0.55 96 1008.0
20260506123726 47 190 0.0 0.0 0.00 0.55 0.55 96 1007.8
20260506123225 47 140 0.0 1.0 0.00 0.55 0.55 96 1007.9
20260506122721 47 171 0.0 1.0 0.00 0.55 0.55 96 1007.9
20260506122218 46 103 0.0 1.0 0.00 0.55 0.55 96 1008.4
20260506121716 47 189 1.0 2.0 0.00 0.55 0.55 96 1008.1
20260506121212 46 195 1.0 2.0 0.00 0.55 0.55 96 1008.0
20260506120710 46 192 0.0 1.0 0.00 0.55 0.55 96 1007.9
20260506120208 46 152 1.0 1.0 0.00 0.55 0.55 96 1007.8
20260506115706 46 205 2.0 3.0 0.00 0.55 0.55 96 1007.9
20260506115204 46 132 1.0 2.0 0.00 0.55 0.55 96 1007.7
20260506114701 46 184 1.0 1.0 0.00 0.55 0.55 96 1007.4
20260506114158 46 204 3.0 3.0 0.07 0.55 0.55 96 1006.9
20260506113657 46 181 0.0 1.0 0.00 0.54 0.54 96 1006.9
20260506113154 46 244 3.0 3.0 0.00 0.54 0.54 96 1007.1
20260506112649 46 189 1.0 2.0 0.00 0.54 0.54 96 1007.1
20260506112148 46 273 3.0 3.0 0.00 0.54 0.54 96 1007.4
20260506111645 46 194 1.0 2.0 0.00 0.54 0.54 96 1006.8
20260506111143 46 169 0.0 2.0 0.00 0.54 0.54 96 1007.4
20260506110640 46 136 1.0 2.0 0.00 0.54 0.54 96 1007.1
20260506110137 46 182 0.0 1.0 0.00 0.54 0.54 96 1007.1
20260506105633 46 127 1.0 3.0 0.00 0.54 0.54 96 1006.7
20260506105130 46 192 0.0 3.0 0.00 0.54 0.54 96 1006.7
20260506104629 46 234 2.0 2.0 0.00 0.54 0.54 96 1006.7
20260506104126 46 254 1.0 1.0 0.00 0.54 0.54 96 1006.1
20260506103623 46 112 1.0 2.0 0.00 0.54 0.54 95 1005.8
20260506103120 46 200 1.0 2.0 0.00 0.54 0.54 95 1005.8
20260506102618 46 167 0.0 1.0 0.05 0.54 0.54 95 1005.4
20260506102115 46 109 0.0 1.0 0.05 0.54 0.54 95 1005.6
20260506101612 46 117 2.0 3.0 0.00 0.53 0.53 95 1005.7
20260506101108 46 283 3.0 6.0 0.00 0.53 0.53 95 1005.7
20260506100607 46 217 3.0 3.0 0.00 0.53 0.53 95 1006.0
20260506100105 46 273 5.0 6.0 0.00 0.53 0.53 95 1005.9
20260506095604 47 263 3.0 3.0 0.00 0.53 0.53 96 1005.7
20260506095100 47 128 0.0 1.0 0.00 0.53 0.53 96 1005.8
20260506094557 47 346 3.0 3.0 0.00 0.53 0.53 95 1005.8
20260506094055 47 127 2.0 3.0 0.07 0.53 0.53 95 1005.7
20260506093553 47 99 0.0 2.0 0.00 0.52 0.52 95 1005.5
20260506093051 47 92 0.0 1.0 0.05 0.52 0.52 95 1005.8
20260506092548 47 110 1.0 2.0 0.05 0.52 0.52 95 1006.2
20260506092045 47 159 0.0 2.0 0.07 0.51 0.51 95 1006.5
20260506091543 47 69 3.0 6.0 0.12 0.51 0.51 95 1006.4
20260506091040 47 121 1.0 3.0 0.17 0.50 0.50 95 1006.1
20260506090538 47 139 1.0 2.0 0.12 0.48 0.48 95 1005.7
20260506090034 48 258 3.0 5.0 0.14 0.47 0.47 96 1006.0
20260506085531 48 325 1.0 7.0 0.19 0.46 0.46 96 1005.8
20260506085027 48 250 3.0 3.0 0.12 0.44 0.44 96 1005.8
20260506084525 49 212 2.0 7.0 0.17 0.43 0.43 96 1005.9
20260506084020 50 222 1.0 8.0 0.19 0.42 0.42 96 1005.9
20260506083518 50 255 1.0 6.0 0.07 0.40 0.40 96 1005.6
20260506083015 50 276 1.0 2.0 0.05 0.39 0.39 96 1005.4
20260506082512 50 90 1.0 2.0 0.05 0.39 0.39 96 1005.1
20260506082007 50 135 0.0 1.0 0.00 0.38 0.38 96 1004.9
20260506081506 50 83 0.0 3.0 0.00 0.38 0.38 96 1004.8
20260506081003 50 234 0.0 5.0 0.07 0.38 0.38 96 1004.9
20260506080500 50 192 1.0 3.0 0.12 0.38 0.38 96 1005.0
20260506073443 52 348 1.0 2.0 0.17 0.28 0.28 97 1004.7
20260506072941 53 273 3.0 3.0 0.24 0.27 0.27 97 1004.7
20260506072438 53 52 2.0 3.0 0.12 0.24 0.24 97 1004.3
20260506071936 53 139 0.0 2.0 0.12 0.23 0.23 97 1004.5
20260506071433 53 151 0.0 1.0 0.12 0.22 0.22 97 1004.5
20260506070930 54 158 1.0 2.0 0.14 0.21 0.21 96 1004.1
20260506070427 56 109 1.0 2.0 0.12 0.20 0.20 96 1004.4
20260506062405 58 172 0.0 0.0 0.07 0.10 0.10 97 1004.7
20260506061900 58 138 0.0 0.0 0.00 0.09 0.09 97 1004.8
20260506061357 58 192 0.0 0.0 0.00 0.09 0.09 97 1004.6
20260506060855 58 126 0.0 0.0 0.00 0.09 0.09 97 1004.6
20260506060353 58 149 0.0 0.0 0.00 0.09 0.09 97 1004.6
20260506051325 59 198 0.0 1.0 0.00 0.08 0.08 97 1005.6
20260506050823 59 116 0.0 0.0 0.00 0.08 0.08 97 1005.5
20260506050320 59 187 0.0 0.0 0.00 0.08 0.08 97 1005.7
20260506044810 59 287 1.0 1.0 0.12 0.08 0.08 97 1005.8
20260506044308 59 201 1.0 2.0 0.07 0.07 0.07 97 1005.9
20260506043805 59 129 0.0 0.0 0.05 0.06 0.06 97 1005.9
20260506043302 59 157 0.0 0.0 0.12 0.06 0.06 97 1006.1
20260506042801 59 114 0.0 0.0 0.12 0.05 0.05 97 1006.1
20260506042259 59 125 0.0 0.0 0.12 0.04 0.04 97 1006.2
20260506041757 59 108 0.0 0.0 0.12 0.03 0.03 97 1006.3
20260506041254 59 171 1.0 1.0 0.05 0.02 0.02 97 1006.3
20260506040751 59 123 0.0 0.0 0.07 0.01 0.01 97 1006.4
20260506040248 59 156 0.0 0.0 0.12 0.01 0.01 97 1006.2
20260506035745 59 119 0.0 0.0 0.12 0.29 0.29 97 1006.1
20260506035242 59 133 0.0 0.0 0.00 0.27 0.27 97 1006.2
20260506034739 59 139 0.0 0.0 0.05 0.27 0.27 97 1006.4
20260506034236 59 172 0.0 0.0 0.05 0.27 0.27 97 1006.4
20260506033733 59 115 0.0 0.0 0.07 0.26 0.26 97 1006.5
20260506033230 59 132 0.0 0.0 0.07 0.26 0.26 97 1006.3
20260506032727 59 152 0.0 0.0 0.00 0.25 0.25 97 1006.2
20260506032224 59 124 0.0 0.0 0.07 0.25 0.25 97 1006.2
20260506031720 59 153 0.0 0.0 0.05 0.24 0.24 97 1006.5
20260506031218 59 129 0.0 0.0 0.12 0.24 0.24 97 1006.5
20260506030716 59 108 0.0 0.0 0.12 0.23 0.23 96 1006.4
20260506030213 59 129 0.0 0.0 0.12 0.22 0.22 96 1006.4
20260506025710 59 120 0.0 0.0 0.12 0.21 0.21 96 1006.3
20260506025206 59 123 0.0 0.0 0.12 0.20 0.20 96 1006.4
20260506024703 59 129 0.0 0.0 0.12 0.19 0.19 96 1006.6
20260506024159 59 144 0.0 0.0 0.12 0.18 0.18 96 1006.3
20260506023656 59 151 0.0 0.0 0.07 0.17 0.17 96 1006.4
20260506023154 59 126 0.0 0.0 0.05 0.16 0.16 96 1006.3
20260506022650 59 153 0.0 0.0 0.05 0.16 0.16 96 1006.4
20260506022148 59 153 0.0 0.0 0.07 0.15 0.15 96 1006.2
20260506021646 59 168 0.0 0.0 0.07 0.15 0.15 96 1006.4
20260506021143 59 106 0.0 0.0 0.00 0.14 0.14 96 1006.4
20260506020640 59 195 1.0 1.0 0.00 0.14 0.14 96 1006.3
20260506020137 59 146 0.0 1.0 0.00 0.14 0.14 96 1006.3
20260506015635 59 120 0.0 1.0 0.00 0.14 0.14 96 1006.5
20260506015132 59 198 1.0 3.0 0.05 0.14 0.14 96 1006.6
20260506014629 59 128 0.0 0.0 0.05 0.14 0.14 96 1006.5
20260506014124 59 112 0.0 0.0 0.00 0.13 0.13 96 1006.5
20260506013623 59 150 0.0 0.0 0.00 0.13 0.13 96 1006.6
20260506013119 59 149 0.0 0.0 0.00 0.13 0.13 96 1006.3
20260506012616 59 126 0.0 0.0 0.00 0.13 0.13 96 1006.4
20260506012112 59 138 0.0 0.0 0.00 0.13 0.13 96 1006.1
20260506011610 59 172 0.0 0.0 0.00 0.13 0.13 95 1006.4
20260506011106 59 150 0.0 0.0 0.00 0.13 0.13 95 1006.1
20260506010600 59 120 0.0 0.0 0.00 0.13 0.13 95 1006.2
20260506010056 59 125 0.0 0.0 0.00 0.13 0.13 95 1006.5
20260506005553 59 134 0.0 0.0 0.00 0.13 0.13 95 1006.2
20260506005049 59 137 0.0 1.0 0.00 0.13 0.13 95 1006.3
20260506004547 59 153 0.0 2.0 0.00 0.13 0.13 95 1006.2
20260506004043 59 139 0.0 0.0 0.00 0.13 0.13 94 1006.2
20260506003540 60 120 0.0 0.0 0.00 0.13 0.13 94 1006.4
20260506003036 60 125 0.0 0.0 0.00 0.13 0.13 94 1006.3
20260506002532 60 124 0.0 2.0 0.00 0.13 0.13 94 1006.3
20260506002028 60 263 2.0 3.0 0.00 0.13 0.13 94 1006.2
20260506001524 60 189 1.0 1.0 0.00 0.13 0.13 93 1006.4
20260506001022 60 154 1.0 1.0 0.00 0.13 0.13 93 1006.5
20260506000519 60 132 1.0 1.0 0.07 0.13 0.13 92 1006.5
20260506000017 60 34 3.0 5.0 0.14 0.13 0.13 92 1006.7
20260505235514 60 86 1.0 6.0 0.59 0.12 0.12 91 1006.4
20260505235011 61 226 8.0 11.0 0.64 0.11 0.11 90 1006.6
20260505234508 62 218 5.0 10.0 0.05 0.01 0.01 87 1006.5
20260505234005 63 357 2.0 8.0 0.00 0.00 0.00 85 1005.9
20260505233502 64 171 2.0 7.0 0.00 0.00 0.00 82 1005.8
20260505232959 66 249 6.0 10.0 0.00 0.00 0.00 78 1006.0
20260505232457 70 351 4.0 5.0 0.00 0.00 0.00 67 1005.7
20260505231954 70 211 3.0 5.0 0.00 0.00 0.00 64 1005.9
20260505231451 70 143 2.0 6.0 0.00 0.00 0.00 63 1005.5
20260505230950 70 221 5.0 7.0 0.00 0.00 0.00 63 1005.5
20260505230447 70 229 2.0 8.0 0.00 0.00 0.00 62 1005.5
20260505225943 70 242 5.0 8.0 0.00 0.00 0.00 62 1005.4
20260505225441 71 103 4.0 6.0 0.00 0.00 0.00 62 1005.7
20260505224936 71 242 5.0 13.0 0.00 0.00 0.00 62 1005.7
20260505224433 71 263 3.0 10.0 0.00 0.00 0.00 62 1005.6
20260505223931 71 348 6.0 17.0 0.00 0.00 0.00 61 1005.8
20260505223427 71 104 2.0 6.0 0.00 0.00 0.00 62 1005.3
20260505222924 71 325 3.0 10.0 0.00 0.00 0.00 61 1005.4
20260505222420 71 112 2.0 8.0 0.00 0.00 0.00 62 1005.5
20260505221916 71 166 7.0 13.0 0.00 0.00 0.00 62 1005.5
20260505221414 72 274 7.0 11.0 0.00 0.00 0.00 62 1005.3
20260505220911 72 182 5.0 8.0 0.00 0.00 0.00 62 1005.4
20260505220407 72 234 2.0 9.0 0.00 0.00 0.00 62 1005.5
20260505215905 72 256 1.0 5.0 0.00 0.00 0.00 63 1005.4
20260505215403 72 268 3.0 5.0 0.00 0.00 0.00 62 1005.6
20260505214901 71 55 3.0 6.0 0.00 0.00 0.00 62 1005.3
20260505214358 71 90 3.0 10.0 0.00 0.00 0.00 64 1005.6
20260505213855 71 191 1.0 3.0 0.00 0.00 0.00 64 1005.6
20260505213353 71 188 2.0 5.0 0.00 0.00 0.00 64 1005.2
20260505212849 71 120 1.0 6.0 0.00 0.00 0.00 65 1005.4
20260505212346 71 214 1.0 5.0 0.00 0.00 0.00 64 1005.5
20260505211842 71 273 3.0 3.0 0.00 0.00 0.00 64 1005.6